| time (UTC) | temp F | wind direction | speed MPH | gust MPH | rain 1hr in | rain 24hr in | rain mn in | humidity % | barometer mb |
| 20260507164325 | 61 | 23 | 2.0 | 6.0 | 0.00 | 0.01 | 0.00 | 100 | 560.1 |
| 20260507163326 | 61 | 10 | 1.0 | 5.0 | 0.00 | 0.01 | 0.00 | 100 | 560.1 |
| 20260507162326 | 59 | 42 | 1.0 | 3.0 | 0.00 | 0.01 | 0.00 | 100 | 560.1 |
| 20260507161424 | 59 | 27 | 4.0 | 8.0 | 0.00 | 0.01 | 0.00 | 100 | 560.1 |
| 20260507155525 | 59 | 29 | 2.0 | 4.0 | 0.00 | 0.01 | 0.00 | 100 | 560.1 |
| 20260507153523 | 58 | 320 | 1.0 | 5.0 | 0.00 | 0.01 | 0.00 | 100 | 560.1 |
| 20260507152523 | 59 | 37 | 4.0 | 6.0 | 0.00 | 0.01 | 0.00 | 100 | 560.1 |
| 20260507151524 | 59 | 1 | 0.0 | 0.0 | 0.00 | 0.01 | 0.00 | 100 | 560.1 |
| 20260507150525 | 58 | 360 | 0.0 | 0.0 | 0.00 | 0.01 | 0.00 | 100 | 560.1 |
| 20260507150425 | 59 | 1 | 0.0 | 0.0 | 0.00 | 0.01 | 0.00 | 100 | 560.1 |
| 20260507145425 | 58 | 43 | 4.0 | 6.0 | 0.00 | 0.01 | 0.00 | 100 | 560.1 |
| 20260507144425 | 58 | 315 | 2.0 | 3.0 | 0.00 | 0.01 | 0.00 | 100 | 560.1 |
| 20260507143522 | 57 | 90 | 3.0 | 4.0 | 0.00 | 0.01 | 0.00 | 100 | 560.1 |
| 20260507142523 | 0 | 0 | 0.0 | 0.0 | 0.00 | 0.01 | 0.00 | 100 | |
| 20260507142424 | 0 | 0 | 0.0 | 0.0 | 0.00 | 0.01 | 0.00 | 100 | |
| 20260507141510 | 54 | 337 | 0.0 | 0.0 | 0.00 | 0.01 | 0.00 | 100 | 560.1 |
| 20260507140511 | 54 | 337 | 0.0 | 0.0 | 0.00 | 0.01 | 0.00 | 100 | 560.1 |
| 20260507135513 | 54 | 337 | 0.0 | 0.0 | 0.00 | 0.01 | 0.00 | 100 | 560.1 |
| 20260507134609 | 55 | 334 | 2.0 | 3.0 | 0.00 | 0.01 | 0.00 | 100 | 560.1 |
| 20260507133611 | 55 | 317 | 0.0 | 2.0 | 0.00 | 0.01 | 0.00 | 100 | 560.1 |
| 20260507132611 | 54 | 22 | 0.0 | 0.0 | 0.00 | 0.01 | 0.00 | 100 | 560.1 |
| 20260507131709 | 53 | 337 | 1.0 | 2.0 | 0.00 | 0.01 | 0.00 | 100 | 560.1 |
| 20260507130710 | 54 | 317 | 1.0 | 4.0 | 0.00 | 0.01 | 0.00 | 100 | 560.1 |
| 20260507124711 | 53 | 22 | 5.0 | 6.0 | 0.00 | 0.01 | 0.00 | 100 | 560.1 |
| 20260507115811 | 0 | 0 | 0.0 | 0.0 | 0.00 | 0.02 | 0.00 | 100 | |
| 20260507114811 | 52 | 315 | 0.0 | 0.0 | 0.00 | 0.02 | 0.00 | 100 | 560.1 |
| 20260507113812 | 53 | 315 | 0.0 | 0.0 | 0.00 | 0.02 | 0.00 | 100 | 560.1 |
| 20260507112812 | 0 | 0 | 0.0 | 0.0 | 0.00 | 0.02 | 0.00 | 100 | |
| 20260507111910 | 0 | 0 | 0.0 | 0.0 | 0.00 | 0.02 | 0.00 | 100 | |
| 20260507103910 | 0 | 0 | 0.0 | 0.0 | 0.00 | 0.02 | 0.00 | 100 | |
| 20260507102913 | 0 | 0 | 0.0 | 0.0 | 0.00 | 0.02 | 0.00 | 100 | |
| 20260507100012 | 0 | 0 | 0.0 | 0.0 | 0.00 | 0.02 | 0.00 | 100 | |
| 20260507095012 | 0 | 0 | 0.0 | 0.0 | 0.00 | 0.02 | 0.00 | 100 | |
| 20260507094012 | 0 | 0 | 0.0 | 0.0 | 0.00 | 0.02 | 0.00 | 100 | |
| 20260507093110 | 0 | 0 | 0.0 | 0.0 | 0.00 | 0.02 | 0.00 | 100 | |
| 20260507093025 | 0 | 0 | 0.0 | 0.0 | 0.00 | 0.02 | 0.00 | 100 | |
| 20260507091026 | 53 | 22 | 0.0 | 0.0 | 0.00 | 0.02 | 0.00 | 100 | 560.1 |
| 20260507090025 | 55 | 337 | 0.0 | 0.0 | 0.00 | 0.02 | 0.00 | 100 | 560.1 |
| 20260507085026 | 55 | 296 | 0.0 | 0.0 | 0.00 | 0.02 | 0.00 | 100 | 560.1 |
| 20260507084026 | 55 | 22 | 0.0 | 0.0 | 0.00 | 0.02 | 0.00 | 100 | 560.1 |
| 20260507083026 | 54 | 359 | 0.0 | 2.0 | 0.00 | 0.02 | 0.00 | 100 | 560.1 |
| 20260507082025 | 55 | 10 | 1.0 | 4.0 | 0.00 | 0.02 | 0.00 | 100 | 560.1 |
| 20260507081125 | 55 | 13 | 0.0 | 0.0 | 0.00 | 0.02 | 0.00 | 100 | 560.1 |
| 20260507080124 | 54 | 337 | 0.0 | 0.0 | 0.00 | 0.02 | 0.00 | 100 | 560.1 |
| 20260507075224 | 54 | 360 | 0.0 | 0.0 | 0.00 | 0.02 | 0.00 | 100 | 560.1 |
| 20260507074240 | 54 | 292 | 0.0 | 0.0 | 0.00 | 0.02 | 0.00 | 100 | 560.1 |
| 20260507073324 | 55 | 14 | 1.0 | 5.0 | 0.00 | 0.02 | 0.00 | 100 | 560.1 |
| 20260507072325 | 55 | 316 | 0.0 | 0.0 | 0.00 | 0.02 | 0.00 | 100 | 560.1 |
| 20260507071326 | 55 | 315 | 0.0 | 0.0 | 0.00 | 0.02 | 0.00 | 100 | 560.1 |
| 20260507070327 | 55 | 315 | 0.0 | 0.0 | 0.00 | 0.02 | 0.00 | 100 | 560.1 |
| 20260507065325 | 56 | 9 | 0.0 | 0.0 | 0.00 | 0.02 | 0.00 | 100 | 560.1 |
| 20260507064326 | 55 | 360 | 0.0 | 0.0 | 0.00 | 0.02 | 0.00 | 100 | 560.1 |
| 20260507062427 | 56 | 283 | 0.0 | 3.0 | 0.00 | 0.02 | 0.00 | 100 | 560.1 |
| 20260507061426 | 55 | 1 | 0.0 | 3.0 | 0.00 | 0.02 | 0.00 | 100 | 560.1 |
| 20260507060426 | 55 | 311 | 1.0 | 4.0 | 0.00 | 0.02 | 0.00 | 100 | 560.1 |
| 20260507055524 | 56 | 354 | 0.0 | 0.0 | 0.00 | 0.02 | 0.00 | 100 | 560.1 |
| 20260507054526 | 56 | 338 | 0.0 | 0.0 | 0.00 | 0.02 | 0.00 | 100 | 560.1 |
| 20260507053526 | 56 | 359 | 0.0 | 0.0 | 0.00 | 0.02 | 0.00 | 100 | 560.1 |
| 20260507052525 | 56 | 326 | 0.0 | 0.0 | 0.00 | 0.02 | 0.00 | 100 | 560.1 |
| 20260507050527 | 56 | 336 | 1.0 | 6.0 | 0.00 | 0.02 | 0.00 | 100 | 560.1 |
| 20260507050424 | 56 | 305 | 0.0 | 2.0 | 0.00 | 0.02 | 0.00 | 100 | 560.1 |
| 20260507045425 | 57 | 26 | 0.0 | 0.0 | 0.00 | 0.02 | 0.00 | 100 | 560.1 |
| 20260507044442 | 57 | 23 | 1.0 | 5.0 | 0.00 | 0.02 | 0.00 | 100 | 560.1 |
| 20260507040425 | 57 | 349 | 0.0 | 0.0 | 0.00 | 0.02 | 0.00 | 100 | 560.1 |
| 20260507035513 | 57 | 326 | 2.0 | 5.0 | 0.00 | 0.02 | 0.02 | 100 | 560.1 |
| 20260507034611 | 56 | 330 | 0.0 | 3.0 | 0.00 | 0.02 | 0.02 | 100 | 560.1 |
| 20260507033612 | 56 | 5 | 0.0 | 0.0 | 0.00 | 0.02 | 0.02 | 100 | 560.1 |
| 20260507031610 | 58 | 20 | 0.0 | 0.0 | 0.00 | 0.02 | 0.02 | 100 | 560.1 |
| 20260507030612 | 59 | 342 | 0.0 | 0.0 | 0.00 | 0.02 | 0.02 | 100 | 560.1 |
| 20260507025712 | 59 | 350 | 0.0 | 4.0 | 0.00 | 0.02 | 0.02 | 100 | 560.1 |
| 20260507024712 | 60 | 348 | 0.0 | 3.0 | 0.00 | 0.02 | 0.02 | 100 | 560.1 |
| 20260507023712 | 60 | 356 | 1.0 | 4.0 | 0.00 | 0.02 | 0.02 | 100 | 560.1 |
| 20260507022710 | 60 | 354 | 3.0 | 8.0 | 0.00 | 0.02 | 0.02 | 100 | 560.1 |
| 20260507021810 | 61 | 315 | 0.0 | 0.0 | 0.00 | 0.02 | 0.02 | 100 | 560.1 |
| 20260507020810 | 61 | 337 | 0.0 | 0.0 | 0.00 | 0.02 | 0.02 | 100 | 560.1 |
| 20260507015828 | 60 | 315 | 2.0 | 4.0 | 0.00 | 0.02 | 0.02 | 100 | 560.1 |
| 20260507014911 | 61 | 19 | 0.0 | 0.0 | 0.00 | 0.02 | 0.02 | 100 | 560.1 |
| 20260507013911 | 62 | 1 | 0.0 | 3.0 | 0.00 | 0.02 | 0.02 | 100 | 560.1 |
| 20260507012911 | 62 | 337 | 0.0 | 0.0 | 0.00 | 0.02 | 0.02 | 100 | 560.1 |
| 20260507010912 | 62 | 337 | 0.0 | 0.0 | 0.00 | 0.02 | 0.02 | 100 | 560.1 |
| 20260507005911 | 62 | 286 | 0.0 | 0.0 | 0.00 | 0.02 | 0.02 | 100 | 560.1 |
| 20260507004912 | 63 | 315 | 0.0 | 0.0 | 0.00 | 0.02 | 0.02 | 100 | 560.1 |
| 20260507003911 | 63 | 315 | 0.0 | 0.0 | 0.00 | 0.02 | 0.02 | 100 | 560.1 |
| 20260507002912 | 64 | 276 | 0.0 | 3.0 | 0.00 | 0.02 | 0.02 | 100 | 560.1 |
| 20260507001912 | 64 | 337 | 0.0 | 0.0 | 0.00 | 0.02 | 0.02 | 100 | 560.1 |
| 20260507000913 | 63 | 330 | 2.0 | 5.0 | 0.00 | 0.02 | 0.02 | 100 | 560.1 |
| 20260506235912 | 65 | 247 | 0.0 | 0.0 | 0.00 | 0.02 | 0.02 | 100 | 560.1 |
| 20260506235010 | 65 | 247 | 0.0 | 0.0 | 0.00 | 0.02 | 0.02 | 100 | 560.1 |
| 20260506234013 | 65 | 247 | 0.0 | 0.0 | 0.00 | 0.02 | 0.02 | 100 | 560.1 |
| 20260506233110 | 66 | 279 | 0.0 | 0.0 | 0.00 | 0.02 | 0.02 | 100 | 560.1 |
| 20260506232111 | 65 | 42 | 0.0 | 2.0 | 0.00 | 0.02 | 0.02 | 100 | 560.1 |
| 20260506231111 | 66 | 19 | 1.0 | 5.0 | 0.00 | 0.02 | 0.02 | 100 | 560.1 |
| 20260506230111 | 67 | 64 | 3.0 | 7.0 | 0.00 | 0.02 | 0.02 | 100 | 560.1 |
| 20260506223210 | 68 | 350 | 1.0 | 3.0 | 0.00 | 0.02 | 0.02 | 100 | 560.1 |
| 20260506222211 | 69 | 360 | 0.0 | 0.0 | 0.00 | 0.02 | 0.02 | 100 | 560.1 |
| 20260506221311 | 70 | 202 | 0.0 | 0.0 | 0.00 | 0.02 | 0.02 | 100 | 560.1 |
| 20260506220312 | 69 | 202 | 0.0 | 0.0 | 0.00 | 0.02 | 0.02 | 100 | 560.1 |
| 20260506214313 | 69 | 202 | 0.0 | 0.0 | 0.00 | 0.02 | 0.02 | 25 | 560.1 |
| 20260506213311 | 69 | 202 | 0.0 | 0.0 | 0.00 | 0.02 | 0.02 | 33 | 560.1 |
| 20260506212310 | 68 | 202 | 0.0 | 0.0 | 0.00 | 0.02 | 0.02 | 35 | 560.1 |
| 20260506211314 | 68 | 202 | 0.0 | 0.0 | 0.00 | 0.02 | 0.02 | 37 | 560.1 |
| 20260506210411 | 67 | 202 | 0.0 | 0.0 | 0.00 | 0.02 | 0.02 | 36 | 560.1 |
| 20260506205510 | 67 | 202 | 0.0 | 0.0 | 0.00 | 0.02 | 0.02 | 39 | 560.1 |
| 20260506204513 | 66 | 202 | 0.0 | 0.0 | 0.00 | 0.02 | 0.02 | 41 | 560.1 |
| 20260506203511 | 66 | 202 | 0.0 | 0.0 | 0.00 | 0.02 | 0.02 | 27 | 560.1 |
| 20260506202610 | 66 | 202 | 0.0 | 0.0 | 0.00 | 0.02 | 0.02 | 25 | 560.1 |
| 20260506201613 | 66 | 202 | 0.0 | 0.0 | 0.00 | 0.02 | 0.02 | 1 | 560.1 |
| 20260506200711 | 67 | 202 | 0.0 | 0.0 | 0.00 | 0.02 | 0.02 | 100 | 560.1 |
| 20260506195712 | 68 | 202 | 0.0 | 0.0 | 0.00 | 0.02 | 0.02 | 100 | 560.1 |
| 20260506194713 | 68 | 234 | 0.0 | 3.0 | 0.01 | 0.02 | 0.02 | 100 | 560.1 |
| 20260506193810 | 67 | 187 | 4.0 | 5.0 | 0.01 | 0.02 | 0.02 | 100 | 560.1 |
| 20260506191811 | 70 | 157 | 0.0 | 0.0 | 0.01 | 0.02 | 0.02 | 100 | 560.1 |
| 20260506190812 | 70 | 202 | 0.0 | 3.0 | 0.01 | 0.02 | 0.02 | 100 | 560.1 |
| 20260506185812 | 69 | 180 | 0.0 | 1.0 | 0.01 | 0.02 | 0.02 | 100 | 560.1 |
| 20260506184813 | 68 | 156 | 4.0 | 6.0 | 0.00 | 0.01 | 0.01 | 100 | 560.1 |
| 20260506183911 | 69 | 168 | 5.0 | 8.0 | 0.00 | 0.01 | 0.01 | 100 | 560.1 |
| 20260506182913 | 68 | 153 | 4.0 | 7.0 | 0.00 | 0.01 | 0.01 | 100 | 560.1 |
| 20260506181912 | 67 | 179 | 3.0 | 4.0 | 0.00 | 0.01 | 0.01 | 100 | 560.1 |
| 20260506180912 | 67 | 149 | 3.0 | 5.0 | 0.00 | 0.01 | 0.01 | 100 | 560.1 |
| 20260506175911 | 68 | 158 | 2.0 | 6.0 | 0.00 | 0.01 | 0.01 | 100 | 560.1 |
| 20260506174912 | 68 | 150 | 3.0 | 4.0 | 0.00 | 0.01 | 0.01 | 100 | 560.1 |
| 20260506173911 | 68 | 165 | 4.0 | 6.0 | 0.00 | 0.01 | 0.01 | 100 | 560.1 |
| 20260506170911 | 67 | 169 | 4.0 | 7.0 | 0.00 | 0.01 | 0.01 | 100 | 560.1 |